Погода в Шаматтаве

Канада     55°51′35″N   92°05′53″W
темп.,
°C
ветер,
м/с
пор.,
м/с
влажн.,
%
обл.,
%
осадки,
мм/ч
давл.,
гПа
погр.,
м
25 февраля, чт
чт2500:00−28з119960 0.0 102119
03:00−26ююз2297100 0.0 102134
06:00−26ююз2398100 0.0 101850
09:00−22ююз369799 0.0 1014220
12:00−16ююз489498 0.1 1010390
15:00−10ююз51190100 0.1 1004661
18:00−8юз51292100 0.3 1001759
21:00−7зсз3896100 1.4 1002513
26 февраля, пт
пт2600:00−23ссв61197100 2.3 1003397
03:00−28ссв61197100 0.6 1005388
06:00−29ссв61198100 1.9 1006405
09:00−30ссв61197100 0.9 1008435
12:00−28ссв5992100 1.3 1009480
15:00−28с598699 0.0 1011495
18:00−32с489196 0.0 1014260
21:00−38ссз35950 0.0 101681
27 февраля, сб
сб2700:00−39сз23940 0.0 101730
03:00−39зсз22960 0.0 102020
06:00−38з23970 0.0 102131
09:00−34з36930 0.0 1022228
12:00−28зюз36870 0.0 1022424
15:00−25зюз368638 0.0 1022522
18:00−27юз239365 0.0 102228
21:00−26юз2594100 0.0 1022143
28 февраля, вс
вс2800:00−26юз2395100 0.0 102182
03:00−26юз2299100 0.1 101858
06:00−26юз1299100 0.3 101719
09:00−25зсз1196100 0.1 1016169
12:00−22ссз2489100 0.2 1016662
15:00−23сз4587100 0.1 1017766
18:00−29сз3595100 0.1 101978
21:00−32з239933 0.0 102119
1 марта, пн
пн100:00−33з369432 0.0 1021108
03:00−33зюз37950 0.0 1021136
06:00−33зюз35960 0.0 1021104
09:00−29зюз379354 0.0 1021257
12:00−23зюз369077 0.0 1019331
15:00−18ююз3686100 0.0 1017394
18:00−19ю2494100 0.0 101496
21:00−18юв2498100 0.3 1011154